| time (UTC) | temp F | wind direction | speed knots | gust knots | rain 1hr in | rain 24hr in | rain mn in | humidity % | barometer mb |
| 20260508213552 | 77 | 279 | 3.5 | 10.4 | 0.00 | 0.00 | 0.00 | 20 | 1015.6 |
| 20260508212552 | 76 | 313 | 2.6 | 8.7 | 0.00 | 0.00 | 0.00 | 21 | 1015.8 |
| 20260508212052 | 76 | 352 | 0.9 | 8.7 | 0.00 | 0.00 | 0.00 | 21 | 1015.8 |
| 20260508211552 | 76 | 20 | 4.3 | 10.4 | 0.00 | 0.00 | 0.00 | 20 | 1015.8 |
| 20260508211053 | 76 | 305 | 3.5 | 10.4 | 0.00 | 0.00 | 0.00 | 23 | 1015.9 |
| 20260508210052 | 75 | 315 | 4.3 | 16.5 | 0.00 | 0.00 | 0.00 | 21 | 1016.1 |
| 20260508205552 | 76 | 21 | 8.7 | 16.5 | 0.00 | 0.00 | 0.00 | 21 | 1016.1 |
| 20260508205052 | 76 | 360 | 3.5 | 13.9 | 0.00 | 0.00 | 0.00 | 21 | 1016.2 |
| 20260508204552 | 77 | 311 | 7.0 | 13.9 | 0.00 | 0.00 | 0.00 | 20 | 1016.6 |
| 20260508204052 | 78 | 282 | 7.0 | 12.2 | 0.00 | 0.00 | 0.00 | 20 | 1016.6 |
| 20260508203552 | 77 | 255 | 9.6 | 12.2 | 0.00 | 0.00 | 0.00 | 21 | 1016.6 |
| 20260508203052 | 76 | 296 | 3.5 | 11.3 | 0.00 | 0.00 | 0.00 | 20 | 1016.5 |
| 20260508202552 | 76 | 340 | 0.9 | 11.3 | 0.00 | 0.00 | 0.00 | 20 | 1016.5 |
| 20260508202052 | 77 | 287 | 3.5 | 11.3 | 0.00 | 0.00 | 0.00 | 21 | 1016.8 |
| 20260508201051 | 77 | 314 | 2.6 | 11.3 | 0.00 | 0.00 | 0.00 | 21 | 1017.1 |
| 20260508200551 | 76 | 297 | 3.5 | 11.3 | 0.00 | 0.00 | 0.00 | 22 | 1016.8 |
| 20260508200051 | 75 | 270 | 7.8 | 11.3 | 0.00 | 0.00 | 0.00 | 22 | 1016.9 |
| 20260508195551 | 76 | 3 | 3.5 | 12.2 | 0.00 | 0.00 | 0.00 | 23 | 1016.8 |
| 20260508195051 | 75 | 286 | 9.6 | 12.2 | 0.00 | 0.00 | 0.00 | 21 | 1016.9 |
| 20260508194552 | 74 | 292 | 7.0 | 10.4 | 0.00 | 0.00 | 0.00 | 24 | 1016.6 |
| 20260508194052 | 74 | 7 | 4.3 | 12.2 | 0.00 | 0.00 | 0.00 | 24 | 1016.6 |
| 20260508193551 | 75 | 319 | 2.6 | 12.2 | 0.00 | 0.00 | 0.00 | 22 | 1017.0 |
| 20260508193051 | 74 | 273 | 3.5 | 12.2 | 0.00 | 0.00 | 0.00 | 24 | 1016.7 |
| 20260508192552 | 74 | 327 | 3.5 | 10.4 | 0.00 | 0.00 | 0.00 | 24 | 1016.7 |
| 20260508192051 | 74 | 360 | 7.8 | 10.4 | 0.00 | 0.00 | 0.00 | 24 | 1016.8 |
| 20260508191551 | 74 | 283 | 1.7 | 9.6 | 0.00 | 0.00 | 0.00 | 22 | 1017.1 |
| 20260508191051 | 74 | 271 | 0.9 | 11.3 | 0.00 | 0.00 | 0.00 | 23 | 1017.1 |
| 20260508190551 | 74 | 284 | 3.5 | 11.3 | 0.00 | 0.00 | 0.00 | 23 | 1017.3 |
| 20260508190051 | 75 | 253 | 7.0 | 12.2 | 0.00 | 0.00 | 0.00 | 22 | 1017.7 |
| 20260508185551 | 75 | 282 | 5.2 | 13.0 | 0.00 | 0.00 | 0.00 | 22 | 1017.7 |
| 20260508185052 | 75 | 284 | 12.2 | 13.0 | 0.00 | 0.00 | 0.00 | 23 | 1017.7 |
| 20260508184050 | 75 | 273 | 8.7 | 10.4 | 0.00 | 0.00 | 0.00 | 24 | 1017.9 |
| 20260508183550 | 75 | 280 | 6.1 | 8.7 | 0.00 | 0.00 | 0.00 | 25 | 1017.8 |
| 20260508183051 | 75 | 242 | 2.6 | 9.6 | 0.00 | 0.00 | 0.00 | 24 | 1017.8 |
| 20260508182550 | 75 | 282 | 7.0 | 9.6 | 0.00 | 0.00 | 0.00 | 24 | 1017.9 |
| 20260508182051 | 74 | 281 | 7.8 | 10.4 | 0.00 | 0.00 | 0.00 | 24 | 1017.6 |
| 20260508181050 | 75 | 300 | 8.7 | 12.2 | 0.00 | 0.00 | 0.00 | 24 | 1018.3 |
| 20260508180551 | 75 | 298 | 8.7 | 12.2 | 0.00 | 0.00 | 0.00 | 24 | 1018.3 |
| 20260508180051 | 74 | 266 | 3.5 | 10.4 | 0.00 | 0.00 | 0.00 | 24 | 1018.1 |
| 20260508175550 | 74 | 298 | 6.1 | 10.4 | 0.00 | 0.00 | 0.00 | 25 | 1018.0 |
| 20260508175050 | 73 | 302 | 0.9 | 9.6 | 0.00 | 0.00 | 0.00 | 25 | 1018.1 |
| 20260508174551 | 72 | 311 | 6.1 | 9.6 | 0.00 | 0.00 | 0.00 | 26 | 1017.9 |
| 20260508174050 | 72 | 334 | 1.7 | 7.8 | 0.00 | 0.00 | 0.00 | 26 | 1017.9 |
| 20260508173551 | 72 | 343 | 1.7 | 7.8 | 0.00 | 0.00 | 0.00 | 27 | 1017.9 |
| 20260508173050 | 73 | 290 | 5.2 | 7.8 | 0.00 | 0.00 | 0.00 | 29 | 1018.4 |
| 20260508172550 | 72 | 268 | 2.6 | 6.1 | 0.00 | 0.00 | 0.00 | 32 | 1018.0 |
| 20260508172050 | 71 | 6 | 1.7 | 6.1 | 0.00 | 0.00 | 0.00 | 30 | 1017.9 |
| 20260508171550 | 71 | 9 | 1.7 | 8.7 | 0.00 | 0.00 | 0.00 | 30 | 1018.2 |
| 20260508171050 | 71 | 300 | 2.6 | 8.7 | 0.00 | 0.00 | 0.00 | 30 | 1018.2 |
| 20260508170550 | 71 | 9 | 3.5 | 5.2 | 0.00 | 0.00 | 0.00 | 31 | 1018.2 |
| 20260508170049 | 71 | 9 | 2.6 | 6.1 | 0.00 | 0.00 | 0.00 | 30 | 1018.1 |
| 20260508165550 | 71 | 9 | 0.9 | 6.1 | 0.00 | 0.00 | 0.00 | 29 | 1018.1 |
| 20260508164550 | 71 | 3 | 0.9 | 6.1 | 0.00 | 0.00 | 0.00 | 30 | 1018.0 |
| 20260508164049 | 70 | 2 | 0.9 | 6.1 | 0.00 | 0.00 | 0.00 | 34 | 1018.1 |
| 20260508163549 | 70 | 6 | 0.9 | 6.1 | 0.00 | 0.00 | 0.00 | 33 | 1018.1 |
| 20260508163050 | 70 | 5 | 1.7 | 6.1 | 0.00 | 0.00 | 0.00 | 34 | 1018.1 |
| 20260508162550 | 69 | 6 | 1.7 | 6.1 | 0.00 | 0.00 | 0.00 | 34 | 1017.8 |
| 20260508162049 | 69 | 9 | 4.3 | 6.1 | 0.00 | 0.00 | 0.00 | 32 | 1017.7 |
| 20260508161549 | 70 | 23 | 2.6 | 5.2 | 0.00 | 0.00 | 0.00 | 33 | 1018.3 |
| 20260508161050 | 69 | 43 | 0.0 | 0.0 | 0.00 | 0.00 | 0.00 | 36 | 1018.2 |
| 20260508160549 | 69 | 42 | 0.0 | 0.0 | 0.00 | 0.00 | 0.00 | 33 | 1018.1 |
| 20260508160049 | 69 | 43 | 0.0 | 0.0 | 0.00 | 0.00 | 0.00 | 35 | 1018.1 |
| 20260508155550 | 69 | 42 | 0.0 | 0.0 | 0.00 | 0.00 | 0.00 | 34 | 1018.1 |
| 20260508154549 | 68 | 43 | 0.0 | 0.0 | 0.00 | 0.00 | 0.00 | 35 | 1017.8 |
| 20260508154049 | 68 | 42 | 0.0 | 0.0 | 0.00 | 0.00 | 0.00 | 36 | 1017.8 |
| 20260508153049 | 66 | 42 | 0.0 | 0.0 | 0.00 | 0.00 | 0.00 | 38 | 1017.5 |
| 20260508152549 | 66 | 42 | 0.0 | 0.0 | 0.00 | 0.00 | 0.00 | 40 | 1017.5 |
| 20260508152049 | 66 | 42 | 0.0 | 0.0 | 0.00 | 0.00 | 0.00 | 41 | 1017.5 |
| 20260508151549 | 65 | 42 | 0.0 | 0.0 | 0.00 | 0.00 | 0.00 | 42 | 1018.1 |
| 20260508151049 | 65 | 42 | 0.0 | 0.0 | 0.00 | 0.00 | 0.00 | 41 | 1018.1 |
| 20260508150549 | 65 | 42 | 0.0 | 0.0 | 0.00 | 0.00 | 0.00 | 43 | 1018.1 |
| 20260508150049 | 64 | 43 | 0.0 | 0.0 | 0.00 | 0.00 | 0.00 | 43 | 1017.9 |
| 20260508145548 | 64 | 42 | 0.0 | 0.0 | 0.00 | 0.00 | 0.00 | 45 | 1017.8 |
| 20260508144048 | 62 | 42 | 0.0 | 0.0 | 0.00 | 0.00 | 0.00 | 50 | 1017.7 |
| 20260508143548 | 61 | 43 | 0.0 | 0.0 | 0.00 | 0.00 | 0.00 | 51 | 1017.7 |
| 20260508143048 | 60 | 43 | 0.0 | 0.0 | 0.00 | 0.00 | 0.00 | 54 | 1017.4 |
| 20260508142048 | 58 | 42 | 0.0 | 0.9 | 0.00 | 0.00 | 0.00 | 60 | 1017.0 |
| 20260508141548 | 57 | 42 | 0.0 | 1.7 | 0.00 | 0.00 | 0.00 | 61 | 1018.0 |
| 20260508141048 | 56 | 42 | 0.0 | 2.6 | 0.00 | 0.00 | 0.00 | 63 | 1018.0 |
| 20260508140048 | 55 | 42 | 1.7 | 2.6 | 0.00 | 0.00 | 0.00 | 66 | 1017.6 |
| 20260508135048 | 52 | 42 | 0.0 | 0.9 | 0.00 | 0.00 | 0.00 | 71 | 1017.1 |
| 20260508134548 | 51 | 42 | 0.0 | 0.9 | 0.00 | 0.00 | 0.00 | 71 | 1016.8 |
| 20260508134048 | 50 | 43 | 0.0 | 0.9 | 0.00 | 0.00 | 0.00 | 71 | 1016.8 |
| 20260508133548 | 50 | 42 | 0.0 | 0.0 | 0.00 | 0.00 | 0.00 | 72 | 1016.7 |
| 20260508133048 | 50 | 42 | 0.0 | 0.0 | 0.00 | 0.00 | 0.00 | 73 | 1016.6 |
| 20260508132547 | 49 | 42 | 0.0 | 0.9 | 0.00 | 0.00 | 0.00 | 74 | 1016.3 |
| 20260508132047 | 48 | 42 | 0.0 | 0.9 | 0.00 | 0.00 | 0.00 | 75 | 1016.3 |
| 20260508131547 | 48 | 42 | 0.0 | 0.0 | 0.00 | 0.00 | 0.00 | 75 | 1016.5 |
| 20260508130548 | 47 | 42 | 0.0 | 0.0 | 0.00 | 0.00 | 0.00 | 75 | 1016.4 |
| 20260508125548 | 47 | 42 | 0.0 | 0.0 | 0.00 | 0.00 | 0.00 | 74 | 1016.3 |
| 20260508125047 | 47 | 42 | 0.0 | 0.0 | 0.00 | 0.00 | 0.00 | 74 | 1016.3 |
| 20260508124547 | 47 | 43 | 0.0 | 0.0 | 0.00 | 0.00 | 0.00 | 74 | 1016.2 |
| 20260508123047 | 47 | 42 | 0.0 | 0.0 | 0.00 | 0.00 | 0.00 | 73 | 1016.1 |
| 20260508122547 | 47 | 44 | 0.0 | 0.0 | 0.00 | 0.00 | 0.00 | 73 | 1016.2 |
| 20260508122047 | 47 | 42 | 0.0 | 0.0 | 0.00 | 0.00 | 0.00 | 73 | 1016.1 |
| 20260508121547 | 47 | 42 | 0.0 | 0.0 | 0.00 | 0.00 | 0.00 | 72 | 1016.1 |
| 20260508121047 | 47 | 42 | 0.0 | 0.0 | 0.00 | 0.00 | 0.00 | 72 | 1015.9 |
| 20260508120047 | 48 | 44 | 0.0 | 0.0 | 0.00 | 0.00 | 0.00 | 72 | 1015.9 |
| 20260508115547 | 48 | 42 | 0.0 | 0.0 | 0.00 | 0.00 | 0.00 | 72 | 1015.9 |
| 20260508115047 | 48 | 42 | 0.0 | 0.0 | 0.00 | 0.00 | 0.00 | 72 | 1015.9 |
| 20260508114047 | 48 | 43 | 0.0 | 0.0 | 0.00 | 0.00 | 0.00 | 71 | 1015.8 |
| 20260508113547 | 48 | 42 | 0.0 | 0.0 | 0.00 | 0.00 | 0.00 | 71 | 1015.9 |
| 20260508113046 | 48 | 42 | 0.0 | 0.0 | 0.00 | 0.00 | 0.00 | 71 | 1015.8 |
| 20260508112546 | 48 | 42 | 0.0 | 0.9 | 0.00 | 0.00 | 0.00 | 71 | 1015.8 |
| 20260508112046 | 48 | 42 | 0.0 | 0.9 | 0.00 | 0.00 | 0.00 | 71 | 1015.8 |
| 20260508111547 | 48 | 42 | 0.0 | 0.0 | 0.00 | 0.00 | 0.00 | 71 | 1016.0 |
| 20260508111047 | 48 | 42 | 0.0 | 0.9 | 0.00 | 0.00 | 0.00 | 70 | 1016.1 |
| 20260508110546 | 48 | 42 | 0.0 | 0.9 | 0.00 | 0.00 | 0.00 | 71 | 1016.0 |
| 20260508105546 | 48 | 42 | 0.0 | 1.7 | 0.00 | 0.00 | 0.00 | 70 | 1016.0 |
| 20260508105046 | 48 | 42 | 0.0 | 1.7 | 0.00 | 0.00 | 0.00 | 70 | 1016.1 |
| 20260508104546 | 48 | 42 | 0.0 | 0.0 | 0.00 | 0.00 | 0.00 | 70 | 1016.1 |
| 20260508104046 | 48 | 42 | 0.0 | 0.0 | 0.00 | 0.00 | 0.00 | 70 | 1015.9 |
| 20260508103546 | 48 | 43 | 0.0 | 0.0 | 0.00 | 0.00 | 0.00 | 70 | 1015.9 |
| 20260508103046 | 48 | 42 | 0.0 | 1.7 | 0.00 | 0.00 | 0.00 | 70 | 1015.9 |
| 20260508102546 | 48 | 42 | 0.0 | 1.7 | 0.00 | 0.00 | 0.00 | 70 | 1015.9 |
| 20260508102046 | 48 | 42 | 0.0 | 0.0 | 0.00 | 0.00 | 0.00 | 69 | 1015.9 |
| 20260508101046 | 48 | 42 | 0.0 | 0.0 | 0.00 | 0.00 | 0.00 | 69 | 1015.5 |
| 20260508100546 | 48 | 42 | 0.0 | 0.0 | 0.00 | 0.00 | 0.00 | 69 | 1015.4 |
| 20260508100046 | 49 | 42 | 0.0 | 0.0 | 0.00 | 0.00 | 0.00 | 69 | 1015.7 |
| 20260508095546 | 49 | 42 | 0.0 | 2.6 | 0.00 | 0.00 | 0.00 | 69 | 1015.8 |
| 20260508095045 | 49 | 42 | 0.0 | 2.6 | 0.00 | 0.00 | 0.00 | 69 | 1015.7 |
| 20260508094546 | 49 | 42 | 0.0 | 0.9 | 0.00 | 0.00 | 0.00 | 69 | 1015.8 |
| 20260508094046 | 49 | 42 | 0.0 | 3.5 | 0.00 | 0.00 | 0.00 | 69 | 1015.6 |
| 20260508093545 | 49 | 42 | 0.9 | 3.5 | 0.00 | 0.00 | 0.00 | 69 | 1015.6 |
| 20260508093045 | 49 | 42 | 0.0 | 1.7 | 0.00 | 0.00 | 0.00 | 68 | 1015.5 |
| 20260508092045 | 49 | 42 | 0.0 | 1.7 | 0.00 | 0.00 | 0.00 | 67 | 1015.6 |
| 20260508091546 | 49 | 42 | 0.0 | 2.6 | 0.00 | 0.00 | 0.00 | 68 | 1015.4 |
| 20260508091045 | 50 | 42 | 0.0 | 2.6 | 0.00 | 0.00 | 0.00 | 68 | 1015.8 |
| 20260508090545 | 50 | 42 | 2.6 | 2.6 | 0.00 | 0.00 | 0.00 | 67 | 1015.8 |
| 20260508090045 | 50 | 42 | 0.0 | 0.0 | 0.00 | 0.00 | 0.00 | 67 | 1015.7 |
| 20260508084545 | 50 | 42 | 0.0 | 0.0 | 0.00 | 0.00 | 0.00 | 66 | 1015.8 |
| 20260508084045 | 50 | 42 | 0.0 | 0.0 | 0.00 | 0.00 | 0.00 | 66 | 1016.0 |
| 20260508083545 | 50 | 42 | 0.0 | 0.0 | 0.00 | 0.00 | 0.00 | 66 | 1016.0 |
| 20260508082545 | 51 | 42 | 0.0 | 0.0 | 0.00 | 0.00 | 0.00 | 65 | 1015.9 |
| 20260508082045 | 51 | 42 | 0.0 | 0.0 | 0.00 | 0.00 | 0.00 | 65 | 1015.8 |
| 20260508081545 | 51 | 42 | 0.0 | 0.0 | 0.00 | 0.00 | 0.00 | 65 | 1015.9 |
| 20260508081044 | 51 | 42 | 0.0 | 0.0 | 0.00 | 0.00 | 0.00 | 64 | 1015.9 |
| 20260508080545 | 51 | 41 | 0.0 | 2.6 | 0.00 | 0.00 | 0.00 | 64 | 1015.9 |
| 20260508080045 | 52 | 42 | 0.0 | 2.6 | 0.00 | 0.00 | 0.00 | 64 | 1015.9 |
| 20260508075545 | 52 | 42 | 0.0 | 1.7 | 0.00 | 0.00 | 0.00 | 63 | 1015.8 |
| 20260508075045 | 52 | 42 | 0.0 | 1.7 | 0.00 | 0.00 | 0.00 | 63 | 1015.8 |
| 20260508074544 | 52 | 41 | 0.0 | 0.0 | 0.00 | 0.00 | 0.00 | 63 | 1015.8 |
| 20260508074045 | 52 | 42 | 0.0 | 0.0 | 0.00 | 0.00 | 0.00 | 62 | 1015.8 |
| 20260508073044 | 52 | 42 | 0.0 | 0.0 | 0.00 | 0.00 | 0.00 | 62 | 1015.7 |
| 20260508072544 | 52 | 41 | 0.0 | 0.0 | 0.00 | 0.00 | 0.00 | 62 | 1015.7 |
| 20260508072045 | 53 | 42 | 0.0 | 0.0 | 0.00 | 0.00 | 0.00 | 61 | 1015.9 |
| 20260508071044 | 53 | 42 | 0.0 | 0.0 | 0.00 | 0.00 | 0.00 | 61 | 1015.7 |
| 20260508070544 | 53 | 42 | 0.0 | 0.0 | 0.00 | 0.00 | 0.00 | 60 | 1015.6 |
| 20260508065544 | 54 | 43 | 0.0 | 0.0 | 0.00 | 0.00 | 0.00 | 59 | 1015.7 |
| 20260508065044 | 54 | 42 | 0.0 | 0.0 | 0.00 | 0.00 | 0.00 | 59 | 1015.7 |
| 20260508064544 | 54 | 42 | 0.0 | 0.0 | 0.00 | 0.00 | 0.00 | 59 | 1015.7 |
| 20260508063543 | 55 | 42 | 0.0 | 0.0 | 0.00 | 0.00 | 0.00 | 57 | 1015.9 |
| 20260508063044 | 55 | 42 | 0.0 | 0.0 | 0.00 | 0.00 | 0.00 | 56 | 1016.0 |
| 20260508062544 | 55 | 43 | 0.0 | 0.0 | 0.00 | 0.00 | 0.00 | 56 | 1015.9 |
| 20260508062044 | 55 | 42 | 0.0 | 0.0 | 0.00 | 0.00 | 0.00 | 56 | 1015.9 |
| 20260508061544 | 56 | 43 | 0.0 | 0.0 | 0.00 | 0.00 | 0.00 | 55 | 1015.7 |
| 20260508061044 | 56 | 43 | 0.0 | 0.0 | 0.00 | 0.00 | 0.00 | 55 | 1015.7 |
| 20260508060544 | 56 | 42 | 0.0 | 0.0 | 0.00 | 0.00 | 0.00 | 54 | 1015.6 |
| 20260508055543 | 57 | 42 | 0.0 | 0.9 | 0.00 | 0.00 | 0.00 | 53 | 1015.7 |
| 20260508055044 | 57 | 42 | 0.0 | 0.9 | 0.00 | 0.00 | 0.00 | 52 | 1015.7 |
| 20260508054543 | 57 | 41 | 0.0 | 0.0 | 0.00 | 0.00 | 0.00 | 52 | 1015.8 |
| 20260508054043 | 57 | 42 | 0.0 | 1.7 | 0.00 | 0.00 | 0.00 | 51 | 1015.7 |
| 20260508053544 | 58 | 42 | 0.0 | 1.7 | 0.00 | 0.00 | 0.00 | 51 | 1015.6 |
| 20260508052544 | 58 | 42 | 0.0 | 1.7 | 0.00 | 0.00 | 0.00 | 50 | 1015.7 |
| 20260508051543 | 59 | 43 | 0.9 | 2.6 | 0.00 | 0.00 | 0.00 | 49 | 1015.3 |
| 20260508051043 | 59 | 42 | 0.0 | 2.6 | 0.00 | 0.00 | 0.00 | 48 | 1015.4 |
| 20260508050543 | 59 | 42 | 0.0 | 2.6 | 0.00 | 0.00 | 0.00 | 48 | 1015.3 |
| 20260508050043 | 59 | 42 | 0.0 | 1.7 | 0.00 | 0.00 | 0.00 | 47 | 1015.3 |
| 20260508045543 | 59 | 42 | 0.0 | 2.6 | 0.00 | 0.00 | 0.00 | 46 | 1015.1 |
| 20260508044543 | 60 | 42 | 0.0 | 2.6 | 0.00 | 0.00 | 0.00 | 47 | 1015.4 |
| 20260508044043 | 60 | 42 | 0.0 | 2.6 | 0.00 | 0.00 | 0.00 | 47 | 1015.4 |
| 20260508043542 | 60 | 42 | 0.0 | 1.7 | 0.00 | 0.00 | 0.00 | 46 | 1015.2 |
| 20260508043042 | 60 | 42 | 0.0 | 2.6 | 0.00 | 0.00 | 0.00 | 46 | 1015.2 |
| 20260508042542 | 60 | 42 | 1.7 | 2.6 | 0.00 | 0.00 | 0.00 | 45 | 1015.2 |
| 20260508042042 | 61 | 43 | 0.9 | 2.6 | 0.00 | 0.00 | 0.00 | 46 | 1015.5 |
| 20260508041542 | 61 | 42 | 0.0 | 1.7 | 0.00 | 0.00 | 0.00 | 45 | 1014.5 |
| 20260508041042 | 61 | 43 | 0.0 | 1.7 | 0.00 | 0.00 | 0.00 | 44 | 1014.6 |
| 20260508040542 | 62 | 41 | 0.0 | 0.0 | 0.00 | 0.00 | 0.00 | 43 | 1014.8 |
| 20260508040042 | 62 | 42 | 0.0 | 0.0 | 0.00 | 0.00 | 0.00 | 42 | 1014.7 |
| 20260508035543 | 62 | 42 | 0.0 | 0.0 | 0.00 | 0.00 | 0.00 | 42 | 1014.7 |
| 20260508035042 | 63 | 42 | 0.0 | 1.7 | 0.00 | 0.00 | 0.00 | 42 | 1014.7 |
| 20260508034542 | 63 | 42 | 0.0 | 1.7 | 0.00 | 0.00 | 0.00 | 42 | 1014.7 |
| 20260508034043 | 64 | 43 | 0.9 | 1.7 | 0.00 | 0.00 | 0.00 | 41 | 1014.9 |
| 20260508033543 | 64 | 43 | 0.0 | 1.7 | 0.00 | 0.00 | 0.00 | 41 | 1015.0 |
| 20260508033042 | 64 | 42 | 1.7 | 1.7 | 0.00 | 0.00 | 0.00 | 40 | 1014.9 |
| 20260508032542 | 65 | 42 | 0.0 | 1.7 | 0.00 | 0.00 | 0.00 | 39 | 1015.0 |
| 20260508032042 | 65 | 42 | 0.0 | 1.7 | 0.00 | 0.00 | 0.00 | 38 | 1014.9 |
| 20260508031542 | 66 | 42 | 0.0 | 0.9 | 0.00 | 0.00 | 0.00 | 37 | 1014.8 |
| 20260508031042 | 66 | 44 | 0.0 | 0.9 | 0.00 | 0.00 | 0.00 | 36 | 1014.7 |
| 20260508030542 | 67 | 42 | 0.9 | 0.9 | 0.00 | 0.00 | 0.00 | 35 | 1014.6 |
| 20260508030042 | 67 | 42 | 0.0 | 1.7 | 0.00 | 0.00 | 0.00 | 35 | 1014.6 |
| 20260508025042 | 69 | 42 | 0.9 | 1.7 | 0.00 | 0.00 | 0.00 | 33 | 1014.9 |
| 20260508024541 | 69 | 41 | 0.0 | 0.0 | 0.00 | 0.00 | 0.00 | 32 | 1015.0 |
| 20260508024042 | 70 | 42 | 0.0 | 0.0 | 0.00 | 0.00 | 0.00 | 30 | 1015.2 |
| 20260508023042 | 71 | 42 | 0.0 | 0.0 | 0.00 | 0.00 | 0.00 | 29 | 1015.2 |
| 20260508022541 | 72 | 42 | 0.0 | 1.7 | 0.00 | 0.00 | 0.00 | 28 | 1015.5 |
| 20260508022042 | 72 | 42 | 0.0 | 1.7 | 0.00 | 0.00 | 0.00 | 27 | 1015.4 |
| 20260508021541 | 73 | 42 | 0.0 | 1.7 | 0.00 | 0.00 | 0.00 | 27 | 1014.6 |
| 20260508021041 | 73 | 43 | 0.0 | 2.6 | 0.00 | 0.00 | 0.00 | 26 | 1014.5 |
| 20260508020542 | 73 | 42 | 0.9 | 2.6 | 0.00 | 0.00 | 0.00 | 25 | 1014.5 |
| 20260508020041 | 74 | 42 | 0.9 | 2.6 | 0.00 | 0.00 | 0.00 | 25 | 1014.8 |
| 20260508015541 | 74 | 43 | 0.9 | 2.6 | 0.00 | 0.00 | 0.00 | 25 | 1014.8 |
| 20260508015041 | 74 | 43 | 0.0 | 2.6 | 0.00 | 0.00 | 0.00 | 24 | 1014.8 |
| 20260508014541 | 74 | 43 | 0.0 | 2.6 | 0.00 | 0.00 | 0.00 | 24 | 1014.8 |
| 20260508014041 | 74 | 43 | 1.7 | 2.6 | 0.00 | 0.00 | 0.00 | 24 | 1014.8 |
| 20260508013041 | 74 | 42 | 0.0 | 3.5 | 0.00 | 0.00 | 0.00 | 23 | 1014.8 |
| 20260508012541 | 74 | 43 | 0.0 | 3.5 | 0.00 | 0.00 | 0.00 | 23 | 1014.9 |
| 20260508012041 | 75 | 43 | 3.5 | 3.5 | 0.00 | 0.00 | 0.00 | 23 | 1014.9 |
| 20260508011540 | 75 | 42 | 0.9 | 6.1 | 0.00 | 0.00 | 0.00 | 23 | 1013.8 |
| 20260508011041 | 75 | 42 | 0.9 | 6.1 | 0.00 | 0.00 | 0.00 | 24 | 1013.7 |
| 20260508010541 | 75 | 28 | 2.6 | 4.3 | 0.00 | 0.00 | 0.00 | 24 | 1013.7 |
| 20260508005540 | 75 | 28 | 0.0 | 4.3 | 0.00 | 0.00 | 0.00 | 24 | 1013.9 |
| 20260508005041 | 75 | 27 | 2.6 | 4.3 | 0.00 | 0.00 | 0.00 | 23 | 1013.9 |
| 20260508004540 | 75 | 28 | 0.9 | 3.5 | 0.00 | 0.00 | 0.00 | 23 | 1014.0 |
| 20260508003540 | 75 | 28 | 2.6 | 5.2 | 0.00 | 0.00 | 0.00 | 24 | 1014.2 |
| 20260508003040 | 75 | 27 | 3.5 | 5.2 | 0.00 | 0.00 | 0.00 | 24 | 1014.2 |
| 20260508002540 | 75 | 24 | 4.3 | 4.3 | 0.00 | 0.00 | 0.00 | 24 | 1014.3 |
| 20260508001541 | 75 | 23 | 2.6 | 5.2 | 0.00 | 0.00 | 0.00 | 24 | 1014.0 |
| 20260508001040 | 75 | 15 | 0.9 | 3.5 | 0.00 | 0.00 | 0.00 | 23 | 1014.1 |
| 20260508000540 | 75 | 15 | 0.0 | 1.7 | 0.00 | 0.00 | 0.00 | 24 | 1014.2 |
| 20260508000040 | 75 | 15 | 0.0 | 1.7 | 0.00 | 0.00 | 0.00 | 23 | 1014.2 |
| 20260507235540 | 75 | 15 | 1.7 | 3.5 | 0.00 | 0.00 | 0.00 | 23 | 1014.3 |
| 20260507235040 | 75 | 15 | 0.0 | 3.5 | 0.00 | 0.00 | 0.00 | 23 | 1014.3 |
| 20260507234540 | 75 | 15 | 1.7 | 3.5 | 0.00 | 0.00 | 0.00 | 23 | 1014.4 |
| 20260507234040 | 75 | 14 | 1.7 | 3.5 | 0.00 | 0.00 | 0.00 | 24 | 1014.5 |
| 20260507233040 | 76 | 14 | 1.7 | 4.3 | 0.00 | 0.00 | 0.00 | 23 | 1014.6 |
| 20260507232540 | 76 | 14 | 0.9 | 7.8 | 0.00 | 0.00 | 0.00 | 22 | 1014.7 |
| 20260507232040 | 77 | 11 | 2.6 | 7.8 | 0.00 | 0.00 | 0.00 | 22 | 1014.9 |
| 20260507231539 | 77 | 38 | 2.6 | 7.0 | 0.00 | 0.00 | 0.00 | 21 | 1015.0 |
| 20260507231039 | 77 | 302 | 1.7 | 7.0 | 0.00 | 0.00 | 0.00 | 23 | 1015.1 |
| 20260507230540 | 76 | 310 | 2.6 | 6.1 | 0.00 | 0.00 | 0.00 | 23 | 1014.9 |
| 20260507230040 | 76 | 356 | 0.0 | 6.1 | 0.00 | 0.00 | 0.00 | 23 | 1015.0 |
| 20260507225039 | 75 | 64 | 0.0 | 9.6 | 0.00 | 0.00 | 0.00 | 23 | 1015.2 |
| 20260507224539 | 76 | 46 | 4.3 | 9.6 | 0.00 | 0.00 | 0.00 | 23 | 1015.3 |
| 20260507224040 | 76 | 300 | 3.5 | 7.0 | 0.00 | 0.00 | 0.00 | 25 | 1015.4 |
| 20260507223539 | 75 | 29 | 4.3 | 7.0 | 0.00 | 0.00 | 0.00 | 25 | 1015.4 |
| 20260507223039 | 75 | 344 | 6.1 | 9.6 | 0.00 | 0.00 | 0.00 | 27 | 1015.5 |
| 20260507222539 | 74 | 19 | 3.5 | 10.4 | 0.00 | 0.00 | 0.00 | 24 | 1015.4 |
| 20260507222040 | 75 | 334 | 3.5 | 11.3 | 0.00 | 0.00 | 0.00 | 24 | 1015.7 |
| 20260507221539 | 76 | 352 | 2.6 | 11.3 | 0.00 | 0.00 | 0.00 | 24 | 1015.7 |
| 20260507221039 | 77 | 355 | 7.0 | 8.7 | 0.00 | 0.00 | 0.00 | 23 | 1015.9 |
| 20260507220539 | 76 | 298 | 1.7 | 9.6 | 0.00 | 0.00 | 0.00 | 24 | 1015.7 |
| 20260507220039 | 76 | 293 | 6.1 | 9.6 | 0.00 | 0.00 | 0.00 | 23 | 1015.8 |
| 20260507215539 | 77 | 330 | 2.6 | 7.8 | 0.00 | 0.00 | 0.00 | 24 | 1016.2 |
| 20260507215039 | 77 | 319 | 2.6 | 7.0 | 0.00 | 0.00 | 0.00 | 24 | 1016.3 |
| 20260507214539 | 76 | 311 | 1.7 | 7.0 | 0.00 | 0.00 | 0.00 | 24 | 1016.1 |
| 20260507214038 | 76 | 338 | 1.7 | 7.0 | 0.00 | 0.00 | 0.00 | 24 | 1016.1 |